E1646 Weather Reports


time (UTC)temp
C
wind
direction
speed
KPH
gust
KPH
rain 1hr
cm
rain 24hr
cm
rain mn
cm
humidity
%
barometer
mb
20260510190032 16 103 1.6 4.8 0.00 0.53 0.00 77 1013.3
20260510184526 16 133 1.6 9.7 0.00 0.53 0.00 76 1013.5
20260510183038 16 226 3.2 11.3 0.00 0.53 0.00 78 1013.5
20260510181525 17 164 1.6 6.4 0.00 0.53 0.00 78 1013.5
20260510180010 17 232 0.0 4.8 0.00 0.64 0.00 76 1013.3
20260510174501 18 3 0.0 6.4 0.00 0.64 0.00 71 1013.4
20260510173105 18 358 4.8 12.9 0.00 0.64 0.00 66 1013.3
20260510171554 19 268 3.2 11.3 0.00 0.64 0.00 66 1013.1
20260510170045 19 353 3.2 17.7 0.00 0.64 0.00 68 1013.5
20260510164545 18 181 3.2 12.9 0.00 0.64 0.00 69 1013.3
20260510163033 17 356 4.8 14.5 0.00 0.64 0.00 72 1013.4
20260510161527 17 318 0.0 12.9 0.00 0.64 0.00 74 1013.5
20260510160025 17 316 4.8 12.9 0.00 0.69 0.00 73 1013.5
20260510154515 17 298 3.2 17.7 0.00 0.69 0.00 74 1013.7
20260510153009 17 297 4.8 14.5 0.00 0.69 0.00 72 1013.6
20260510151504 17 226 0.0 8.0 0.00 0.69 0.00 77 1013.5
20260510150057 16 281 1.6 12.9 0.00 0.69 0.00 77 1013.5
20260510144552 16 259 4.8 11.3 0.00 0.69 0.00 78 1013.5
20260510143045 15 137 1.6 14.5 0.00 0.69 0.00 78 1013.5
20260510141539 15 118 3.2 11.3 0.00 0.69 0.00 76 1013.6
20260510140033 14 145 4.8 12.9 0.00 0.69 0.00 71 1013.2
20260510134526 13 205 4.8 14.5 0.00 0.69 0.00 65 1013.6
20260510133035 13 158 1.6 9.7 0.00 0.69 0.00 56 1013.7
20260510131515 13 243 0.0 4.8 0.00 0.69 0.00 41 1013.6
20260510130010 11 97 0.0 4.8 0.00 0.69 0.00 1 1013.6
20260510124506 10 156 0.0 3.2 0.00 0.69 0.00 1 1013.4
20260510123110 9 138 0.0 3.2 0.00 0.69 0.00 1 1013.3
20260510121552 9 245 0.0 1.6 0.00 0.69 0.00 1 1013.1
20260510120046 8 153 0.0 3.2 0.00 0.71 0.00 1 1012.9
20260510114540 8 113 0.0 4.8 0.00 0.71 0.00 1 1012.8
20260510111528 8 155 3.2 8.0 0.00 0.71 0.00 1 1012.3
20260510110026 8 127 0.0 8.0 0.00 0.71 0.00 1 1012.2
20260510104515 -17 0.0 0.0 0.00 0.71 0.00 1011.9
20260510103009 -17 0.0 0.0 0.00 0.71 0.00 1011.5
20260510101505 -17 0.0 0.0 0.00 0.71 0.00 1011.8
20260510100101 -17 0.0 0.0 0.00 0.71 0.00 1011.5
20260510094555 -17 0.0 0.0 0.00 0.71 0.00 1011.3
20260510093049 -17 0.0 0.0 0.00 0.71 0.00 1011.2
20260510091548 -17 0.0 0.0 0.00 0.71 0.00 1011.3
20260510090040 -17 0.0 0.0 0.00 0.71 0.00 1011.4
20260510084534 -17 0.0 0.0 0.00 0.71 0.00 1011.7
20260510083027 -17 0.0 0.0 0.00 0.71 0.00 1012.1
20260510081521 -17 0.0 0.0 0.00 0.71 0.00 1012.0
20260510080015 -17 0.0 0.0 0.00 0.71 0.00 1012.2
20260510074510 6 153 1.6 3.2 0.00 0.71 0.00 1 1012.4
20260510073006 6 212 0.0 12.9 0.00 0.71 0.00 1 1012.5
20260510071607 7 1 1.6 8.0 0.00 0.71 0.00 1 1012.6
20260510070053 6 288 0.0 4.8 0.00 0.76 0.00 1 1012.0
20260510064554 7 149 0.0 8.0 0.00 0.76 0.00 1 1011.7
20260510063045 7 146 0.0 6.4 0.00 0.76 0.00 1 1011.8
20260510061535 7 96 0.0 4.8 0.00 0.76 0.00 1 1012.0
20260510060029 7 229 0.0 9.7 0.00 0.76 0.00 1 1012.2
20260510054524 7 334 0.0 3.2 0.00 0.76 0.00 1 1012.0
20260510053017 7 134 0.0 11.3 0.00 0.76 0.00 1 1011.4
20260510051511 7 75 3.2 12.9 0.00 0.76 0.00 1 1011.3
20260510050004 7 172 3.2 9.7 0.00 0.76 0.00 1 1011.3
20260510044559 7 142 3.2 12.9 0.00 0.76 0.00 1 1011.4
20260510043106 7 240 3.2 9.7 0.00 0.76 0.00 1 1011.5
20260510041549 7 108 4.8 9.7 0.00 0.76 0.00 1 1011.7
20260510040043 7 117 4.8 11.3 0.00 0.76 0.76 1 1011.5
20260510034537 7 129 4.8 14.5 0.00 0.76 0.76 1 1011.2
20260510033030 7 137 4.8 14.5 0.00 0.76 0.76 1 1011.2
20260510031522 7 129 3.2 17.7 0.00 0.76 0.76 1 1011.1
20260510030016 7 115 6.4 11.3 0.00 0.76 0.76 1 1011.3
20260510024512 7 102 3.2 12.9 0.00 0.76 0.76 1 1011.4
20260510023005 7 134 6.4 16.1 0.00 0.76 0.76 1 1011.4
20260510021602 7 148 4.8 12.9 0.00 0.76 0.76 1 1011.1
20260510020053 7 150 3.2 9.7 0.00 0.76 0.76 1 1011.3
20260510014546 7 186 6.4 16.1 0.00 0.76 0.76 1 1011.0
20260510013040 7 115 4.8 14.5 0.00 0.76 0.76 1 1011.2
20260510011534 7 208 4.8 11.3 0.00 0.76 0.76 1 1010.9
20260510010028 7 153 4.8 11.3 0.00 0.76 0.76 1 1010.8
20260510004522 7 142 6.4 17.7 0.00 0.76 0.76 1 1010.6
20260510003015 7 200 8.0 16.1 0.00 0.76 0.76 1 1010.4
20260510001513 7 110 6.4 19.3 0.00 0.76 0.76 1 1010.2
20260510000015 8 163 4.8 19.3 0.00 0.76 0.76 1 1010.3
20260509234504 8 145 4.8 17.7 0.00 0.76 0.76 1 1010.2
20260509233058 8 128 8.0 17.7 0.00 0.76 0.76 1 1010.1
20260509231557 8 150 6.4 14.5 0.00 0.76 0.76 1 1010.2
20260509230048 8 170 4.8 16.1 0.00 0.76 0.76 1 1010.3
20260509224553 8 111 4.8 20.9 0.00 0.76 0.76 1 1010.2
20260509223038 8 152 6.4 16.1 0.00 0.76 0.76 1 1010.3
20260509221536 8 120 4.8 14.5 0.00 0.76 0.76 1 1010.2
20260509220029 8 142 3.2 9.7 0.03 0.76 0.76 1 1010.3
20260509214522 8 141 3.2 17.7 0.03 0.76 0.76 1 1010.6
20260509213018 8 102 6.4 12.9 0.08 0.76 0.76 1 1010.9
20260509211610 8 165 1.6 12.9 0.13 0.76 0.76 1 1010.6
20260509210010 8 141 3.2 9.7 0.13 0.71 0.71 1 1010.8
20260509204601 8 134 4.8 14.5 0.20 0.71 0.71 1 1011.0
20260509203054 8 79 1.6 11.3 0.23 0.69 0.69 1 1011.1
20260509201555 8 150 4.8 16.1 0.23 0.64 0.64 1 1011.2
20260509200053 9 135 1.6 16.1 0.23 0.61 0.61 1 1011.5
20260509194535 9 236 3.2 14.5 0.23 0.53 0.53 1 1011.6
20260509193028 9 267 0.0 9.7 0.18 0.46 0.46 1 1011.8
20260509191523 9 143 1.6 9.7 0.15 0.41 0.41 1 1011.8